TimeEST,TemperatureF,Dew PointF,Humidity,Sea Level PressureIn,VisibilityMPH,Wind Direction,Wind SpeedMPH,Gust SpeedMPH,PrecipitationIn,Events,Conditions,WindDirDegrees,DateUTC
12:53 AM,75.9,70.0,82,30.02,10.0,SE,5.8,-,N/A,,Partly Cloudy,130,2013-11-18 05:53:00
1:53 AM,75.0,70.0,84,30.00,10.0,ESE,4.6,-,N/A,,Partly Cloudy,120,2013-11-18 06:53:00
2:53 AM,75.0,70.0,84,29.99,10.0,SE,3.5,-,N/A,,Scattered Clouds,130,2013-11-18 07:53:00
3:53 AM,75.0,69.1,82,29.99,10.0,SSE,3.5,-,N/A,,Partly Cloudy,150,2013-11-18 08:53:00
4:53 AM,73.0,70.0,90,29.99,10.0,Calm,Calm,-,N/A,,Mostly Cloudy,0,2013-11-18 09:53:00
5:53 AM,72.0,70.0,93,29.99,10.0,Calm,Calm,-,N/A,,Scattered Clouds,0,2013-11-18 10:53:00
6:53 AM,72.0,70.0,93,29.99,10.0,NW,4.6,-,N/A,,Scattered Clouds,320,2013-11-18 11:53:00
7:53 AM,75.0,71.1,87,30.01,10.0,Calm,Calm,-,N/A,,Mostly Cloudy,0,2013-11-18 12:53:00
8:53 AM,79.0,70.0,74,30.01,10.0,Calm,Calm,-,N/A,,Scattered Clouds,0,2013-11-18 13:53:00
9:53 AM,79.0,69.1,72,30.02,10.0,SE,8.1,-,N/A,,Mostly Cloudy,140,2013-11-18 14:53:00
10:53 AM,78.1,70.0,76,30.02,10.0,ESE,12.7,-,N/A,,Partly Cloudy,120,2013-11-18 15:53:00
11:53 AM,82.0,69.1,65,30.00,10.0,SE,6.9,-,N/A,,Scattered Clouds,130,2013-11-18 16:53:00
12:53 PM,80.1,69.1,69,29.97,10.0,SE,9.2,-,N/A,,Overcast,130,2013-11-18 17:53:00
1:53 PM,81.0,69.1,67,29.95,10.0,SE,8.1,-,N/A,,Mostly Cloudy,140,2013-11-18 18:53:00
2:53 PM,81.0,69.1,67,29.94,10.0,SE,9.2,-,N/A,,Scattered Clouds,130,2013-11-18 19:53:00
3:53 PM,81.0,69.1,67,29.93,10.0,SE,8.1,-,N/A,,Scattered Clouds,140,2013-11-18 20:53:00
4:53 PM,79.0,68.0,69,29.93,10.0,SE,8.1,-,N/A,,Mostly Cloudy,140,2013-11-18 21:53:00
5:53 PM,78.1,69.1,74,29.94,10.0,SE,6.9,-,N/A,,Scattered Clouds,130,2013-11-18 22:53:00
6:53 PM,78.1,69.1,74,29.95,10.0,SE,5.8,-,N/A,,Mostly Cloudy,140,2013-11-18 23:53:00
7:53 PM,78.1,69.1,74,29.95,10.0,SE,5.8,-,N/A,,Mostly Cloudy,140,2013-11-19 00:53:00
8:53 PM,78.1,69.1,74,29.96,10.0,SE,5.8,-,N/A,,Overcast,140,2013-11-19 01:53:00
9:53 PM,78.1,69.1,74,29.96,9.0,Variable,3.5,-,N/A,,Mostly Cloudy,0,2013-11-19 02:53:00
10:53 PM,78.1,70.0,76,29.94,10.0,South,3.5,-,N/A,,Overcast,180,2013-11-19 03:53:00
11:53 PM,77.0,70.0,79,29.94,10.0,SW,4.6,-,N/A,,Overcast,220,2013-11-19 04:53:00